User: anonymous   Login
Location: Albany
(35.0000°S, 118.0000°E)
Time: 05:29:31
(UTC-04:00)
Language:

Cosmos 1346 Rocket - Orbit

View from above orbital plane
View from above orbital plane
View from above satellite
View from above satellite

Ground track
Ground track

The orbit data is extracted from the following two-line orbital elements,

1 13121U 82027B   15238.86239748 +.00001423 +00000-0 +92257-4 0  9992
2 13121 081.1701 157.2445 0027396 188.6572 171.4183 15.07186904817473
Epoch (UTC): 26 August 2015 20:41:51
Eccentricity: 0.0027396
inclination: 81.1701°
perigee height: 526 km
apogee height: 564 km
right ascension of ascending node: 157.2445°
argument of perigee: 188.6572°
revolutions per day: 15.07186904
mean anomaly at epoch: 171.4183°
orbit number at epoch: 81747

The dashed part of the orbit path shows where the satellite is in the earth's shadow,  

DLR